If you wish to contribute or participate in the discussions about articles you are invited to join SKYbrary as a registered user

 Actions

Arctic Village Airport

From SKYbrary Wiki

PARC
Airport
ICAO: PARC – IATA: ARC
Summary
Name Arctic Village Airport
Region North America
Territory Alaska US.gif
Location , Alaska
Serving Arctic Village
Elevation 637.642 m
2,092 ft
2,092 ft637.642 m
Type medium airport
Coordinates 68° 6' 52.92" N, 145° 34' 44.40" W
Runways
Designator Length Width Surface ROPS
2/20 1372 m4,501.312 ft
23 m75.459 ft
GVL /


METAR
Observation PARC 261856Z AUTO 35003KT 10SM CLR 13/03 A2981 RMK AO2 SLP119 T01280028
Station Arctic Village, Arctic Village Airport
Date/Time 26 May 2019 18:56:00
Wind direction 350°
Wind speed 03 kts
Lowest cloud amount n/a
Temperature 12.8°C
Dew point 2.8°C
Humidity 50%
QNH hPa
Weather condition n/a